Regional Weather Roundup
Issued by NWS State College, PA

Home | Current Version | Previous Version | Text Only | Print | Product List | Glossary Off
Versions: 1 2 3 4 5 6 7 8 9 10 11 12 13 14 15 16 17 18 19 20 21 22 23 24 25 26 27 28 29 30 31 32 33 34 35 36 37 38 39 40 41 42 43 44 45 46 47 48 49 50

000
ASUS41 KCTP 020410
RWRCTP

REGIONAL WEATHER ROUNDUP
NATIONAL WEATHER SERVICE STATE COLLEGE PA
1200 AM EDT SAT AUG 02 2014

Note: "fair" indicates few or no clouds below 12,000 feet with no
significant weather and/or obstructions to visibility.

* = STATION THAT DOES NOT REPORT PRECIPITATION /E.G. RAIN...SNOW...ETC/
    THUNDER OR FOG.

PAZ002>004-007>009-013>016-020>023-029>032-020500-
WESTERN PENNSYLVANIA

CITY           SKY/WX    TMP DP  RH WIND       PRES   REMARKS
ERIE           PTCLDY    69  60  73 CALM      30.11S
MEADVILLE      PTCLDY    69  61  75 CALM      30.14S
FRANKLIN*      PTCLDY    66  57  72 SE6       30.16S
NEW CASTLE     FAIR      65  63  93 CALM      30.13S
BEAVER COUNTY  NOT AVBL
BUTLER*        PTCLDY    66  61  82 E5        30.15S
PITTSBURGH INT MOCLDY    71  62  73 SE3       30.12S
PITTSBURGH     MOCLDY    70  61  73 S7        30.12F
INDIANA*       CLEAR     66  61  82 VRB3      30.19F
LATROBE        CLEAR     68  64  88 CALM      30.14F
WASHINGTON CO* CLOUDY    64  63  94 CALM      30.13S
$$

PAZ004>006-010>012-017>019-024>028-033>037-041-042-045-046-049>053-020500-
CENTRAL PENNSYLVANIA

CITY           SKY/WX    TMP DP  RH WIND       PRES   REMARKS
BRADFORD       PTCLDY    60  58  92 NW3       30.20R
DUBOIS         MOCLDY    68  60  75 S6        30.16F
CLEARFIELD     MOCLDY    65  61  87 S3        30.18F
JOHNSTOWN      PTCLDY    63  59  87 SE7       30.19F
ALTOONA        MOCLDY    66  61  84 CALM      30.19F
STATE COLLEGE  MOCLDY    67  62  85 S3        30.18F
WILLIAMSPORT   CLOUDY    68  62  81 E6        30.17R
SELINSGROVE    CLOUDY    66  64  93 CALM      30.18F FOG
FT INDIANTOWN  CLOUDY    67  67 100 NE2       30.18F
CAPITAL CITY   CLOUDY    70  66  87 E3        30.17F
HARRISBURG     CLOUDY    71  66  84 S3        30.16F
YORK           CLOUDY    68  59  73 CALM      30.16F
$$

PAZ038>040-043-044-047-048-054-055-060>062-067>071-020500-
EASTERN PENNSYLVANIA

CITY           SKY/WX    TMP DP  RH WIND       PRES   REMARKS
SCRANTON       CLOUDY    67  61  81 CALM      30.20S
MOUNT POCONO   CLOUDY    62  32  32 SE3       30.25R
ALLENTOWN      CLOUDY    67  64  90 N3        30.19F
QUAKERTOWN*    CLOUDY    66  66 100 CALM      30.21S
READING        CLOUDY    69  66  90 CALM      30.18S
LANCASTER      CLOUDY    67  66  97 SE3       30.17F FOG
COATESVILLE    CLOUDY    66  66 100 CALM      30.20S FOG
POTTSTOWN      CLOUDY    68  66  93 NE3       30.20F
BLUE BELL      CLOUDY    68  68 100 CALM      30.18S
DOYLESTOWN     CLOUDY    66  66 100 CALM      30.19S
WILLOW GROVE   NOT AVBL
NORTH PHILA    CLOUDY    71  66  84 NE5       30.20S
PHILADELPHIA   CLOUDY    72  68  87 SE3       30.19S
$$



USA.gov is the U.S. government's official web portal to all federal, state and local government web resources and services.